TimeCST,TemperatureF,Dew PointF,Humidity,Sea Level PressureIn,VisibilityMPH,Wind Direction,Wind SpeedMPH,Gust SpeedMPH,PrecipitationIn,Events,Conditions,WindDirDegrees,DateUTC
12:08 AM,28.0,23.0,81,30.09,9.0,North,17.3,-,N/A,,Overcast,360,2014-03-01 06:08:00
12:53 AM,27.0,21.0,78,30.12,10.0,North,15.0,-,N/A,,Overcast,350,2014-03-01 06:53:00
1:14 AM,27.0,21.0,78,30.10,10.0,North,16.1,-,N/A,,Overcast,360,2014-03-01 07:14:00
1:53 AM,26.1,19.9,78,30.14,10.0,North,17.3,-,N/A,,Overcast,360,2014-03-01 07:53:00
2:53 AM,24.1,17.1,75,30.15,10.0,North,18.4,-,N/A,,Overcast,10,2014-03-01 08:53:00
3:27 AM,24.1,16.0,71,30.17,10.0,NNE,17.3,-,N/A,,Overcast,20,2014-03-01 09:27:00
3:53 AM,23.0,16.0,74,30.18,10.0,NNE,19.6,-,N/A,,Overcast,30,2014-03-01 09:53:00
4:53 AM,23.0,15.1,72,30.20,10.0,NNE,20.7,-,N/A,,Overcast,20,2014-03-01 10:53:00
5:01 AM,23.0,15.1,72,30.19,10.0,NNE,15.0,-,N/A,,Overcast,20,2014-03-01 11:01:00
5:53 AM,21.9,15.1,75,30.25,10.0,North,18.4,-,N/A,,Overcast,10,2014-03-01 11:53:00
6:53 AM,19.9,10.9,68,30.26,10.0,NNE,16.1,-,N/A,,Overcast,30,2014-03-01 12:53:00
7:04 AM,19.9,10.9,68,30.23,10.0,NNE,16.1,-,N/A,,Overcast,30,2014-03-01 13:04:00
7:53 AM,19.0,10.0,68,30.28,10.0,NNE,16.1,-,N/A,,Overcast,20,2014-03-01 13:53:00
8:53 AM,17.1,7.0,65,30.33,10.0,North,18.4,-,N/A,,Overcast,10,2014-03-01 14:53:00
9:53 AM,17.1,6.1,62,30.35,10.0,North,21.9,-,N/A,,Overcast,10,2014-03-01 15:53:00
10:53 AM,16.0,3.9,59,30.35,10.0,NNE,21.9,-,N/A,,Overcast,20,2014-03-01 16:53:00
11:53 AM,16.0,5.0,62,30.36,10.0,NNE,19.6,-,N/A,,Overcast,20,2014-03-01 17:53:00
12:53 PM,16.0,5.0,62,30.35,10.0,NE,18.4,-,N/A,,Overcast,40,2014-03-01 18:53:00
1:53 PM,16.0,5.0,62,30.36,10.0,North,17.3,-,N/A,,Overcast,10,2014-03-01 19:53:00
2:53 PM,15.1,5.0,64,30.35,10.0,NNE,19.6,-,N/A,,Overcast,20,2014-03-01 20:53:00
3:53 PM,12.9,3.9,67,30.34,10.0,NNE,19.6,-,N/A,,Overcast,30,2014-03-01 21:53:00
4:13 PM,12.9,3.9,67,30.30,10.0,North,20.7,-,N/A,,Overcast,10,2014-03-01 22:13:00
4:53 PM,12.0,3.9,70,30.36,4.0,NNE,19.6,-,0.00,Snow,Light Snow,20,2014-03-01 22:53:00
5:53 PM,10.9,3.9,73,30.38,4.0,North,20.7,-,0.00,Snow,Light Snow,10,2014-03-01 23:53:00
6:53 PM,9.0,3.9,80,30.39,3.0,NNE,21.9,28.8,0.00,Snow,Light Snow,20,2014-03-02 00:53:00
7:15 PM,9.0,3.9,80,30.36,2.5,North,19.6,-,0.00,Snow,Light Snow,10,2014-03-02 01:15:00
7:21 PM,9.0,3.9,80,30.36,3.0,North,23.0,27.6,0.00,Snow,Light Snow,10,2014-03-02 01:21:00
7:53 PM,9.0,3.0,77,30.42,5.0,NNE,20.7,27.6,0.00,Snow,Light Snow,20,2014-03-02 01:53:00
8:41 PM,8.1,1.9,76,30.42,2.5,North,23.0,-,0.00,Snow,Light Snow,360,2014-03-02 02:41:00
8:53 PM,7.0,1.0,77,30.45,2.0,North,20.7,29.9,0.00,Snow,Light Snow,10,2014-03-02 02:53:00
9:19 PM,7.0,1.0,77,30.41,1.5,North,19.6,-,0.00,Snow,Light Snow,10,2014-03-02 03:19:00
9:40 PM,6.1,-0.0,76,30.41,3.0,North,24.2,29.9,0.00,Snow,Light Snow,10,2014-03-02 03:40:00
9:53 PM,6.1,-0.9,73,30.46,3.0,North,23.0,-,0.00,Snow,Light Snow,10,2014-03-02 03:53:00
10:06 PM,6.1,-0.9,73,30.42,6.0,NNE,23.0,28.8,0.00,Snow,Light Snow,20,2014-03-02 04:06:00
10:24 PM,5.0,-0.9,76,30.45,1.8,North,20.7,-,0.00,Snow,Light Snow,10,2014-03-02 04:24:00
10:32 PM,5.0,-0.9,76,30.46,1.2,North,19.6,-,0.00,Snow,Light Snow,360,2014-03-02 04:32:00
10:44 PM,3.9,-0.9,80,30.46,0.8,North,20.7,-,0.00,Snow,Light Snow,10,2014-03-02 04:44:00
10:53 PM,3.9,-0.9,80,30.49,1.0,NNE,23.0,-,0.00,Snow,Light Snow,20,2014-03-02 04:53:00
11:34 PM,3.0,-2.0,80,30.46,0.8,North,19.6,-,0.00,Snow,Light Snow,10,2014-03-02 05:34:00
11:53 PM,3.0,-2.0,80,30.49,0.8,NNE,19.6,-,0.01,Snow,Light Snow,20,2014-03-02 05:53:00